Tracking 27188 objects as of 1-Apr-2023
HD Live streaming from Space Station
objects crossing your sky now

STARLINK-2284

Track STARLINK-2284 now!
10-day predictions
STARLINK-2284 is classified as:


NORAD ID: 48016
Int'l Code: 2021-024AR
Perigee: 553.6 km
Apogee: 555.2 km
Inclination: 53.1 °
Period: 95.6 minutes
Semi major axis: 6925 km
RCS: Unknown
Launch date: March 24, 2021
Source: United States (US)
Launch site: AIR FORCE EASTERN TEST RANGE (AFETR)
Your satellite tracking list
Your tracking list is empty




NASA's NSSDC Master Catalog

Two Line Element Set (TLE):
1 48016U 21024AR  23091.21894461  .00039333  00000-0  26461-2 0  9990
2 48016  53.0539  30.8157 0001159 115.8550 244.2558 15.06381401113410
Source of the keplerian elements: AFSPC